Gillette, WY

11:28 AM MST on January 19, 2018 (GMT -0700)
Gillette-Campbell County

Weather History for KGCC - December, 2010

Change the Weather History Date:

Wednesday, December 29, 2010

  Actual Average Record
Temperature  
Mean Temperature 31 °F 25 °F  
Max Temperature 45 °F 36 °F 60 °F (1929)
Min Temperature 17 °F 13 °F -35 °F (1990)
Degree Days  
Heating Degree Days 34 40  
Month to date heating degree days 1118 1185  
Since 1 July heating degree days 2849 3060  
Cooling Degree Days 0 0  
Month to date cooling degree days 0 0  
Year to date cooling degree days 429 502  
Moisture  
Dew Point 20 °F    
Average Humidity 66    
Maximum Humidity 92    
Minimum Humidity 40    
Precipitation  
Precipitation T in 0.02 in 0.30 in (1936)
Month to date precipitation 0.20 0.38  
Year to date precipitation 13.43 13.87  
Sea Level Pressure  
Sea Level Pressure 29.19 in    
Wind  
Wind Speed 21 mph (WNW)    
Max Wind Speed 45 mph    
Max Gust Speed 56 mph    
Visibility 9 miles    
Events Snow    
T = Trace of Precipitation, MM = Missing Value Source: NWS Daily Summary

Daily Weather History Graph

Daily Weather History Graph

Search for Another Location

Airport or City:

Trip Planner

Search our weather history database for the weather conditions in past years. The results will help you decide how hot, cold, wet, or windy it might be!

Date:

Astronomy

Dec. 29, 2010 Rise Set
Actual Time 7:37 AM MST 4:30 PM MST
Civil Twilight 7:04 AM MST 5:04 PM MST
Nautical Twilight 6:27 AM MST 5:40 PM MST
Astronomical Twilight 5:52 AM MST 6:16 PM MST
Moon 1:44 AM MST (12/29) 12:06 PM MST (12/29)
Length of Visible Light 9h 59m
Length of Day
8h 53m
Waning Crescent, 32% of the Moon is Illuminated
Dec 29
Waning Crescent
Jan 4
New
Jan 12
First Quarter
Jan 19
Full
Jan 26
Last Quarter

Hourly Weather History & Observations

Time (MST) Temp. Windchill Dew Point Humidity Pressure Visibility Wind Dir Wind Speed Gust Speed Precip Events Conditions
12:53 AM 33.1 °F 20.1 °F 19.0 °F 56% 29.37 in 10.0 mi SW 25.3 mph 33.4 mph N/A   Clear
1:53 AM 34.0 °F 21.0 °F 19.0 °F 54% 29.32 in 10.0 mi SW 26.5 mph 35.7 mph N/A   Clear
2:53 AM 35.1 °F 21.0 °F 19.0 °F 52% 29.28 in 10.0 mi SW 34.5 mph 42.6 mph N/A   Clear
3:53 AM 35.1 °F 22.0 °F 18.0 °F 50% 29.22 in 10.0 mi SSW 28.8 mph 39.1 mph N/A   Clear
4:53 AM 35.1 °F 21.8 °F 18.0 °F 50% 29.18 in 10.0 mi SSW 29.9 mph 39.1 mph N/A   Clear
5:53 AM 37.0 °F 22.6 °F 16.0 °F 42% 29.11 in 10.0 mi SSW 41.4 mph 51.8 mph N/A   Overcast
6:53 AM 37.0 °F 23.1 °F 17.1 °F 44% 29.10 in 10.0 mi SSW 38.0 mph 49.5 mph N/A   Overcast
7:53 AM 36.0 °F 21.8 °F 21.0 °F 55% 29.09 in 10.0 mi SSW 36.8 mph 44.9 mph N/A   Scattered Clouds
8:53 AM 36.0 °F 24.7 °F 21.9 °F 57% 29.12 in 10.0 mi SSW 21.9 mph 29.9 mph N/A   Partly Cloudy
9:53 AM 37.4 °F 26.4 °F 21.2 °F 52% 29.03 in 10.0 mi SW 23.0 mph 38.0 mph N/A   Partly Cloudy
10:53 AM 37.4 °F 25.6 °F 21.2 °F 52% 29.02 in 10.0 mi SW 26.5 mph 32.2 mph N/A   Clear
11:53 AM 39.9 °F 29.7 °F 23.0 °F 51% 29.02 in 10.0 mi SW 23.0 mph 33.4 mph N/A   Clear
12:53 PM 42.1 °F 33.6 °F 23.0 °F 47% 29.00 in 10.0 mi WSW 18.4 mph 27.6 mph N/A   Clear
1:53 PM 45.0 °F 36.6 °F 23.0 °F 42% 29.00 in 10.0 mi WSW 21.9 mph 28.8 mph N/A   Clear
2:53 PM 37.9 °F 30.9 °F 23.0 °F 55% 29.05 in 10.0 mi North 10.4 mph - N/A   Clear
3:53 PM 34.0 °F 28.8 °F 23.0 °F 64% 29.11 in 10.0 mi NNE 5.8 mph - N/A   Partly Cloudy
4:53 PM 30.0 °F 24.1 °F 21.9 °F 72% 29.15 in 10.0 mi North 5.8 mph - N/A   Clear
5:53 PM 28.9 °F 25.2 °F 21.9 °F 75% 29.18 in 10.0 mi NW 3.5 mph - N/A   Clear
6:53 PM 28.9 °F 19.8 °F 21.9 °F 75% 29.21 in 10.0 mi NNW 10.4 mph - N/A   Clear
7:53 PM 26.1 °F 15.0 °F 21.0 °F 81% 29.26 in 10.0 mi NNE 12.7 mph - N/A   Partly Cloudy
8:37 PM 24.8 °F 14.0 °F 19.4 °F 80% 29.24 in 10.0 mi North 11.5 mph - N/A   Mostly Cloudy
8:53 PM 23.0 °F 10.6 °F 19.9 °F 88% 29.31 in 10.0 mi NNE 13.8 mph - N/A   Overcast
9:18 PM 23.0 °F 10.6 °F 19.4 °F 86% 29.26 in 8.0 mi North 13.8 mph - N/A   Overcast
9:53 PM 21.9 °F 8.7 °F 19.9 °F 92% 29.34 in 9.0 mi North 15.0 mph - N/A   Overcast
10:08 PM 21.2 °F 7.8 °F 19.4 °F 93% 29.28 in 6.0 mi North 15.0 mph - N/A   Overcast
10:53 PM 21.0 °F 6.2 °F 19.0 °F 92% 29.38 in 7.0 mi North 18.4 mph - N/A   Overcast
11:41 PM 19.4 °F 3.6 °F 17.6 °F 93% 29.34 in 1.8 mi NNW 19.6 mph - 0.00 in Snow Light Snow
11:53 PM 18.0 °F 0.9 °F 16.0 °F 92% 29.41 in 1.2 mi NNW 21.9 mph - 0.00 in Snow Light Snow